Retour au catalogue

COSMOS 2317

GLONASS

ActifNavigationMEO
NORAD 23621·PAYLOAD·🇷🇺 Russia

Lancé Jul 24, 1995 depuis Baikonur Cosmodrome

Loading…

Prochains Passages (prochaines 24 heures)

TLE

VieillissantSource: Space-Track

Époque: Aug 30, 2026, 07:45 UTC

1 23621U 95037B   26242.32354999  .00000054  00000-0  00000+0 0  9996
2 23621  65.4814 200.5598 0009281 172.0593   0.4782  2.13101663241832

Suivez COSMOS 2317 en temps réel avec AllMySat

Download on the App Store